Year,Month,Day,Hour,Minute,Value (Times are PST for temperature in C)
2018,07,31,00,00,21.80
2018,07,31,00,01,21.70
2018,07,31,00,02,21.70
2018,07,31,00,03,21.70
2018,07,31,00,04,21.70
2018,07,31,00,05,21.60
2018,07,31,00,06,21.60
2018,07,31,00,07,21.60
2018,07,31,00,08,21.60
2018,07,31,00,09,21.60
2018,07,31,00,10,21.50
2018,07,31,00,11,21.50
2018,07,31,00,12,21.50
2018,07,31,00,13,21.40
2018,07,31,00,14,21.40
2018,07,31,00,15,21.50
2018,07,31,00,16,21.50
2018,07,31,00,17,21.60
2018,07,31,00,18,21.60
2018,07,31,00,19,21.60
2018,07,31,00,20,21.60
2018,07,31,00,21,21.50
2018,07,31,00,22,21.50
2018,07,31,00,23,21.50
2018,07,31,00,24,21.50
2018,07,31,00,25,21.50
2018,07,31,00,26,21.40
2018,07,31,00,27,21.40
2018,07,31,00,28,21.40
2018,07,31,00,29,21.30
2018,07,31,00,30,21.30
2018,07,31,00,31,21.30
2018,07,31,00,32,21.20
2018,07,31,00,33,21.20
2018,07,31,00,34,21.10
2018,07,31,00,35,21.10
2018,07,31,00,36,21.10
2018,07,31,00,37,21.10
2018,07,31,00,38,21.10
2018,07,31,00,39,21.20
2018,07,31,00,40,21.30
2018,07,31,00,41,21.30
2018,07,31,00,42,21.30
2018,07,31,00,43,21.30
2018,07,31,00,44,21.30
2018,07,31,00,45,21.30
2018,07,31,00,46,21.30
2018,07,31,00,47,21.30
2018,07,31,00,48,21.20
2018,07,31,00,49,21.20
2018,07,31,00,50,21.20
2018,07,31,00,51,21.10
2018,07,31,00,52,21.10
2018,07,31,00,53,21.10
2018,07,31,00,54,21.00
2018,07,31,00,55,21.00
2018,07,31,00,56,20.90
2018,07,31,00,57,20.90
2018,07,31,00,58,20.90
2018,07,31,00,59,20.90
2018,07,31,01,00,20.80
2018,07,31,01,01,20.80
2018,07,31,01,02,20.80
2018,07,31,01,03,20.80
2018,07,31,01,04,20.70
2018,07,31,01,05,20.70
2018,07,31,01,06,20.70
2018,07,31,01,07,20.70
2018,07,31,01,08,20.60
2018,07,31,01,09,20.60
2018,07,31,01,10,20.60
2018,07,31,01,11,20.60
2018,07,31,01,12,20.60
2018,07,31,01,13,20.60
2018,07,31,01,14,20.50
2018,07,31,01,15,20.50
2018,07,31,01,16,20.40
2018,07,31,01,17,20.40
2018,07,31,01,18,20.40
2018,07,31,01,19,20.30
2018,07,31,01,20,20.30
2018,07,31,01,21,20.30
2018,07,31,01,22,20.20
2018,07,31,01,23,20.20
2018,07,31,01,24,20.20
2018,07,31,01,25,20.20
2018,07,31,01,26,20.20
2018,07,31,01,27,20.10
2018,07,31,01,28,20.10
2018,07,31,01,29,20.10
2018,07,31,01,30,20.10
2018,07,31,01,31,20.20
2018,07,31,01,32,20.10
2018,07,31,01,33,20.10
2018,07,31,01,34,20.20
2018,07,31,01,35,20.20
2018,07,31,01,36,20.20
2018,07,31,01,37,20.20
2018,07,31,01,38,20.20
2018,07,31,01,39,20.20
2018,07,31,01,40,20.20
2018,07,31,01,41,20.20
2018,07,31,01,42,20.20
2018,07,31,01,43,20.20
2018,07,31,01,44,20.20
2018,07,31,01,45,20.20
2018,07,31,01,46,20.20
2018,07,31,01,47,20.10
2018,07,31,01,48,20.10
2018,07,31,01,49,20.10
2018,07,31,01,50,20.10
2018,07,31,01,51,20.10
2018,07,31,01,52,20.10
2018,07,31,01,53,20.10
2018,07,31,01,54,20.10
2018,07,31,01,55,20.10
2018,07,31,01,56,20.10
2018,07,31,01,57,20.20
2018,07,31,01,58,20.20
2018,07,31,01,59,20.30
2018,07,31,02,00,20.40
2018,07,31,02,01,20.40
2018,07,31,02,02,20.50
2018,07,31,02,03,20.60
2018,07,31,02,04,20.60
2018,07,31,02,05,20.60
2018,07,31,02,06,20.60
2018,07,31,02,07,20.60
2018,07,31,02,08,20.70
2018,07,31,02,09,20.70
2018,07,31,02,10,20.70
2018,07,31,02,11,20.70
2018,07,31,02,12,20.70
2018,07,31,02,13,20.70
2018,07,31,02,14,20.70
2018,07,31,02,15,20.70
2018,07,31,02,16,20.70
2018,07,31,02,17,20.70
2018,07,31,02,18,20.60
2018,07,31,02,19,20.60
2018,07,31,02,20,20.50
2018,07,31,02,21,20.40
2018,07,31,02,22,20.40
2018,07,31,02,23,20.30
2018,07,31,02,24,20.20
2018,07,31,02,25,20.20
2018,07,31,02,26,20.20
2018,07,31,02,27,20.10
2018,07,31,02,28,20.10
2018,07,31,02,29,20.10
2018,07,31,02,30,20.00
2018,07,31,02,31,20.00
2018,07,31,02,32,19.90
2018,07,31,02,33,19.80
2018,07,31,02,34,19.80
2018,07,31,02,35,19.70
2018,07,31,02,36,19.70
2018,07,31,02,37,19.60
2018,07,31,02,38,19.60
2018,07,31,02,39,19.50
2018,07,31,02,40,19.40
2018,07,31,02,41,19.40
2018,07,31,02,42,19.30
2018,07,31,02,43,19.30
2018,07,31,02,44,19.30
2018,07,31,02,45,19.20
2018,07,31,02,46,19.20
2018,07,31,02,47,19.10
2018,07,31,02,48,19.10
2018,07,31,02,49,19.00
2018,07,31,02,50,19.00
2018,07,31,02,51,18.90
2018,07,31,02,52,18.90
2018,07,31,02,53,18.90
2018,07,31,02,54,18.90
2018,07,31,02,55,18.90
2018,07,31,02,56,18.90
2018,07,31,02,57,18.90
2018,07,31,02,58,18.80
2018,07,31,02,59,18.80
2018,07,31,03,00,18.80
2018,07,31,03,01,18.80
2018,07,31,03,02,18.70
2018,07,31,03,03,18.70
2018,07,31,03,04,18.70
2018,07,31,03,05,18.70
2018,07,31,03,06,18.60
2018,07,31,03,07,18.60
2018,07,31,03,08,18.60
2018,07,31,03,09,18.60
2018,07,31,03,10,18.60
2018,07,31,03,11,18.50
2018,07,31,03,12,18.50
2018,07,31,03,13,18.50
2018,07,31,03,14,18.40
2018,07,31,03,15,18.40
2018,07,31,03,16,18.30
2018,07,31,03,17,18.30
2018,07,31,03,18,18.30
2018,07,31,03,19,18.20
2018,07,31,03,20,18.20
2018,07,31,03,21,18.10
2018,07,31,03,22,18.10
2018,07,31,03,23,18.10
2018,07,31,03,24,18.10
2018,07,31,03,25,18.10
2018,07,31,03,26,18.00
2018,07,31,03,27,18.00
2018,07,31,03,28,17.90
2018,07,31,03,29,17.90
2018,07,31,03,30,17.90
2018,07,31,03,31,17.80
2018,07,31,03,32,17.80
2018,07,31,03,33,17.80
2018,07,31,03,34,17.70
2018,07,31,03,35,17.70
2018,07,31,03,36,17.70
2018,07,31,03,37,17.70
2018,07,31,03,38,17.70
2018,07,31,03,39,17.70
2018,07,31,03,40,17.70
2018,07,31,03,41,17.60
2018,07,31,03,42,17.60
2018,07,31,03,43,17.50
2018,07,31,03,44,17.50
2018,07,31,03,45,17.50
2018,07,31,03,46,17.50
2018,07,31,03,47,17.50
2018,07,31,03,48,17.40
2018,07,31,03,49,17.40
2018,07,31,03,50,17.40
2018,07,31,03,51,17.40
2018,07,31,03,52,17.40
2018,07,31,03,53,17.40
2018,07,31,03,54,17.40
2018,07,31,03,55,17.30
2018,07,31,03,56,17.30
2018,07,31,03,57,17.30
2018,07,31,03,58,17.30
2018,07,31,03,59,17.30
2018,07,31,04,00,17.30
2018,07,31,04,01,17.30
2018,07,31,04,02,17.30
2018,07,31,04,03,17.30
2018,07,31,04,04,17.30
2018,07,31,04,05,17.30
2018,07,31,04,06,17.30
2018,07,31,04,07,17.30
2018,07,31,04,08,17.30
2018,07,31,04,09,17.30
2018,07,31,04,10,17.30
2018,07,31,04,11,17.30
2018,07,31,04,12,17.30
2018,07,31,04,13,17.30
2018,07,31,04,14,17.30
2018,07,31,04,15,17.20
2018,07,31,04,16,17.20
2018,07,31,04,17,17.20
2018,07,31,04,18,17.20
2018,07,31,04,19,17.10
2018,07,31,04,20,17.10
2018,07,31,04,21,17.10
2018,07,31,04,22,17.10
2018,07,31,04,23,17.10
2018,07,31,04,24,17.00
2018,07,31,04,25,17.00
2018,07,31,04,26,17.00
2018,07,31,04,27,16.90
2018,07,31,04,28,16.90
2018,07,31,04,29,16.90
2018,07,31,04,30,16.90
2018,07,31,04,31,16.80
2018,07,31,04,32,16.80
2018,07,31,04,33,16.80
2018,07,31,04,34,16.80
2018,07,31,04,35,16.80
2018,07,31,04,36,16.80
2018,07,31,04,37,16.80
2018,07,31,04,38,16.80
2018,07,31,04,39,16.70
2018,07,31,04,40,16.70
2018,07,31,04,41,16.70
2018,07,31,04,42,16.70
2018,07,31,04,43,16.70
2018,07,31,04,44,16.60
2018,07,31,04,45,16.60
2018,07,31,04,46,16.60
2018,07,31,04,47,16.60
2018,07,31,04,48,16.50
2018,07,31,04,49,16.50
2018,07,31,04,50,16.50
2018,07,31,04,51,16.50
2018,07,31,04,52,16.50
2018,07,31,04,53,16.50
2018,07,31,04,54,16.50
2018,07,31,04,55,16.50
2018,07,31,04,56,16.50
2018,07,31,04,57,16.50
2018,07,31,04,58,16.50
2018,07,31,04,59,16.50
2018,07,31,05,00,16.50
2018,07,31,05,01,16.50
2018,07,31,05,02,16.50
2018,07,31,05,03,16.50
2018,07,31,05,04,16.50
2018,07,31,05,05,16.50
2018,07,31,05,06,16.40
2018,07,31,05,07,16.40
2018,07,31,05,08,16.30
2018,07,31,05,09,16.30
2018,07,31,05,10,16.30
2018,07,31,05,11,16.30
2018,07,31,05,12,16.30
2018,07,31,05,13,16.30
2018,07,31,05,14,16.30
2018,07,31,05,15,16.30
2018,07,31,05,16,16.40
2018,07,31,05,17,16.40
2018,07,31,05,18,16.40
2018,07,31,05,19,16.40
2018,07,31,05,20,16.40
2018,07,31,05,21,16.40
2018,07,31,05,22,16.40
2018,07,31,05,23,16.40
2018,07,31,05,24,16.40
2018,07,31,05,25,16.30
2018,07,31,05,26,16.30
2018,07,31,05,27,16.30
2018,07,31,05,28,16.30
2018,07,31,05,29,16.30
2018,07,31,05,30,16.30
2018,07,31,05,31,16.30
2018,07,31,05,32,16.20
2018,07,31,05,33,16.20
2018,07,31,05,34,16.20
2018,07,31,05,35,16.20
2018,07,31,05,36,16.20
2018,07,31,05,37,16.20
2018,07,31,05,38,16.20
2018,07,31,05,39,16.20
2018,07,31,05,40,16.20
2018,07,31,05,41,16.20
2018,07,31,05,42,16.20
2018,07,31,05,43,16.20
2018,07,31,05,44,16.20
2018,07,31,05,45,16.20
2018,07,31,05,46,16.20
2018,07,31,05,47,16.10
2018,07,31,05,48,16.10
2018,07,31,05,49,16.10
2018,07,31,05,50,16.10
2018,07,31,05,51,16.10
2018,07,31,05,52,16.10
2018,07,31,05,53,16.10
2018,07,31,05,54,16.00
2018,07,31,05,55,16.00
2018,07,31,05,56,16.00
2018,07,31,05,57,16.00
2018,07,31,05,58,16.00
2018,07,31,05,59,16.10
2018,07,31,06,00,16.10
2018,07,31,06,01,16.10
2018,07,31,06,02,16.10
2018,07,31,06,03,16.10
2018,07,31,06,04,16.10
2018,07,31,06,05,16.10
2018,07,31,06,06,16.10
2018,07,31,06,07,16.10
2018,07,31,06,08,16.10
2018,07,31,06,09,16.10
2018,07,31,06,10,16.10
2018,07,31,06,11,16.10
2018,07,31,06,12,16.10
2018,07,31,06,13,16.10
2018,07,31,06,14,16.10
2018,07,31,06,15,16.10
2018,07,31,06,16,16.10
2018,07,31,06,17,16.10
2018,07,31,06,18,16.00
2018,07,31,06,19,16.00
2018,07,31,06,20,16.00
2018,07,31,06,21,15.90
2018,07,31,06,22,15.90
2018,07,31,06,23,15.90
2018,07,31,06,24,15.90
2018,07,31,06,25,15.90
2018,07,31,06,26,15.90
2018,07,31,06,27,15.90
2018,07,31,06,28,15.80
2018,07,31,06,29,15.90
2018,07,31,06,30,15.80
2018,07,31,06,31,15.80
2018,07,31,06,32,15.80
2018,07,31,06,33,15.80
2018,07,31,06,34,15.80
2018,07,31,06,35,15.80
2018,07,31,06,36,15.90
2018,07,31,06,37,15.90
2018,07,31,06,38,15.90
2018,07,31,06,39,15.90
2018,07,31,06,40,15.90
2018,07,31,06,41,15.90
2018,07,31,06,42,15.90
2018,07,31,06,43,15.90
2018,07,31,06,44,15.90
2018,07,31,06,45,16.00
2018,07,31,06,46,16.00
2018,07,31,06,47,16.10
2018,07,31,06,48,16.10
2018,07,31,06,49,16.10
2018,07,31,06,50,16.10
2018,07,31,06,51,16.20
2018,07,31,06,52,16.20
2018,07,31,06,53,16.20
2018,07,31,06,54,16.20
2018,07,31,06,55,16.20
2018,07,31,06,56,16.30
2018,07,31,06,57,16.30
2018,07,31,06,58,16.30
2018,07,31,06,59,16.40
2018,07,31,07,00,16.40
2018,07,31,07,01,16.40
2018,07,31,07,02,16.50
2018,07,31,07,03,16.50
2018,07,31,07,04,16.60
2018,07,31,07,05,16.60
2018,07,31,07,06,16.60
2018,07,31,07,07,16.70
2018,07,31,07,08,16.70
2018,07,31,07,09,16.80
2018,07,31,07,10,16.80
2018,07,31,07,11,16.80
2018,07,31,07,12,16.90
2018,07,31,07,13,16.90
2018,07,31,07,14,17.00
2018,07,31,07,15,17.10
2018,07,31,07,16,17.10
2018,07,31,07,17,17.20
2018,07,31,07,18,17.30
2018,07,31,07,19,17.30
2018,07,31,07,20,17.40
2018,07,31,07,21,17.50
2018,07,31,07,22,17.50
2018,07,31,07,23,17.60
2018,07,31,07,24,17.70
2018,07,31,07,25,17.70
2018,07,31,07,26,17.80
2018,07,31,07,27,17.90
2018,07,31,07,28,17.90
2018,07,31,07,29,18.00
2018,07,31,07,30,18.00
2018,07,31,07,31,18.10
2018,07,31,07,32,18.20
2018,07,31,07,33,18.20
2018,07,31,07,34,18.30
2018,07,31,07,35,18.30
2018,07,31,07,36,18.40
2018,07,31,07,37,18.40
2018,07,31,07,38,18.40
2018,07,31,07,39,18.50
2018,07,31,07,40,18.50
2018,07,31,07,41,18.60
2018,07,31,07,42,18.60
2018,07,31,07,43,18.70
2018,07,31,07,44,18.70
2018,07,31,07,45,18.80
2018,07,31,07,46,18.80
2018,07,31,07,47,18.80
2018,07,31,07,48,18.90
2018,07,31,07,49,19.00
2018,07,31,07,50,19.00
2018,07,31,07,51,19.10
2018,07,31,07,52,19.10
2018,07,31,07,53,19.20
2018,07,31,07,54,19.20
2018,07,31,07,55,19.30
2018,07,31,07,56,19.30
2018,07,31,07,57,19.30
2018,07,31,07,58,19.40
2018,07,31,07,59,19.50
2018,07,31,08,00,19.50
2018,07,31,08,01,19.60
2018,07,31,08,02,19.60
2018,07,31,08,03,19.70
2018,07,31,08,04,19.70
2018,07,31,08,05,19.80
2018,07,31,08,06,19.80
2018,07,31,08,07,19.80
2018,07,31,08,08,19.80
2018,07,31,08,09,19.80
2018,07,31,08,10,19.90
2018,07,31,08,11,19.90
2018,07,31,08,12,19.90
2018,07,31,08,13,20.00
2018,07,31,08,14,20.00
2018,07,31,08,15,20.10
2018,07,31,08,16,20.10
2018,07,31,08,17,20.10
2018,07,31,08,18,20.20
2018,07,31,08,19,20.20
2018,07,31,08,20,20.20
2018,07,31,08,21,20.30
2018,07,31,08,22,20.30
2018,07,31,08,23,20.30
2018,07,31,08,24,20.30
2018,07,31,08,25,20.30
2018,07,31,08,26,20.40
2018,07,31,08,27,20.40
2018,07,31,08,28,20.40
2018,07,31,08,29,20.50
2018,07,31,08,30,20.50
2018,07,31,08,31,20.60
2018,07,31,08,32,20.60
2018,07,31,08,33,20.70
2018,07,31,08,34,20.70
2018,07,31,08,35,20.80
2018,07,31,08,36,20.70
2018,07,31,08,37,20.80
2018,07,31,08,38,20.70
2018,07,31,08,39,20.80
2018,07,31,08,40,20.80
2018,07,31,08,41,20.80
2018,07,31,08,42,20.80
2018,07,31,08,43,20.80
2018,07,31,08,44,20.80
2018,07,31,08,45,20.90
2018,07,31,08,46,20.90
2018,07,31,08,47,21.00
2018,07,31,08,48,21.00
2018,07,31,08,49,21.00
2018,07,31,08,50,21.10
2018,07,31,08,51,21.10
2018,07,31,08,52,21.10
2018,07,31,08,53,21.20
2018,07,31,08,54,21.20
2018,07,31,08,55,21.30
2018,07,31,08,56,21.30
2018,07,31,08,57,21.30
2018,07,31,08,58,21.30
2018,07,31,08,59,21.30
2018,07,31,09,00,21.30
2018,07,31,09,01,21.40
2018,07,31,09,02,21.40
2018,07,31,09,03,21.40
2018,07,31,09,04,21.50
2018,07,31,09,05,21.50
2018,07,31,09,06,21.60
2018,07,31,09,07,21.60
2018,07,31,09,08,21.60
2018,07,31,09,09,21.60
2018,07,31,09,10,21.60
2018,07,31,09,11,21.60
2018,07,31,09,12,21.60
2018,07,31,09,13,21.60
2018,07,31,09,14,21.60
2018,07,31,09,15,21.60
2018,07,31,09,16,21.60
2018,07,31,09,17,21.70
2018,07,31,09,18,21.70
2018,07,31,09,19,21.80
2018,07,31,09,20,21.80
2018,07,31,09,21,21.80
2018,07,31,09,22,21.80
2018,07,31,09,23,21.90
2018,07,31,09,24,21.90
2018,07,31,09,25,21.90
2018,07,31,09,26,21.90
2018,07,31,09,27,21.90
2018,07,31,09,28,21.90
2018,07,31,09,29,21.90
2018,07,31,09,30,21.90
2018,07,31,09,31,21.90
2018,07,31,09,32,21.90
2018,07,31,09,33,21.90
2018,07,31,09,34,21.90
2018,07,31,09,35,21.90
2018,07,31,09,36,21.90
2018,07,31,09,37,22.00
2018,07,31,09,38,22.00
2018,07,31,09,39,22.00
2018,07,31,09,40,21.90
2018,07,31,09,41,21.90
2018,07,31,09,42,21.90
2018,07,31,09,43,21.90
2018,07,31,09,44,21.90
2018,07,31,09,45,21.90
2018,07,31,09,46,21.90
2018,07,31,09,47,21.90
2018,07,31,09,48,22.00
2018,07,31,09,49,22.00
2018,07,31,09,50,22.10
2018,07,31,09,51,22.10
2018,07,31,09,52,22.20
2018,07,31,09,53,22.20
2018,07,31,09,54,22.20
2018,07,31,09,55,22.20
2018,07,31,09,56,22.20
2018,07,31,09,57,22.20
2018,07,31,09,58,22.10
2018,07,31,09,59,22.20
2018,07,31,10,00,22.20
2018,07,31,10,01,22.20
2018,07,31,10,02,22.20
2018,07,31,10,03,22.20
2018,07,31,10,04,22.20
2018,07,31,10,05,22.20
2018,07,31,10,06,22.30
2018,07,31,10,07,22.30
2018,07,31,10,08,22.40
2018,07,31,10,09,22.50
2018,07,31,10,10,22.50
2018,07,31,10,11,22.60
2018,07,31,10,12,22.60
2018,07,31,10,13,22.60
2018,07,31,10,14,22.70
2018,07,31,10,15,22.70
2018,07,31,10,16,22.80
2018,07,31,10,17,22.80
2018,07,31,10,18,22.90
2018,07,31,10,19,23.00
2018,07,31,10,20,23.10
2018,07,31,10,21,23.10
2018,07,31,10,22,23.10
2018,07,31,10,23,23.10
2018,07,31,10,24,23.00
2018,07,31,10,25,23.00
2018,07,31,10,26,23.00
2018,07,31,10,27,23.00
2018,07,31,10,28,22.90
2018,07,31,10,29,22.90
2018,07,31,10,30,22.90
2018,07,31,10,31,22.90
2018,07,31,10,32,22.90
2018,07,31,10,33,22.90
2018,07,31,10,34,22.90
2018,07,31,10,35,23.00
2018,07,31,10,36,23.00
2018,07,31,10,37,23.10
2018,07,31,10,38,23.10
2018,07,31,10,39,23.10
2018,07,31,10,40,23.10
2018,07,31,10,41,23.10
2018,07,31,10,42,23.10
2018,07,31,10,43,23.10
2018,07,31,10,44,23.10
2018,07,31,10,45,23.20
2018,07,31,10,46,23.20
2018,07,31,10,47,23.20
2018,07,31,10,48,23.30
2018,07,31,10,49,23.30
2018,07,31,10,50,23.30
2018,07,31,10,51,23.20
2018,07,31,10,52,23.20
2018,07,31,10,53,23.10
2018,07,31,10,54,23.10
2018,07,31,10,55,23.10
2018,07,31,10,56,23.20
2018,07,31,10,57,23.20
2018,07,31,10,58,23.30
2018,07,31,10,59,23.30
2018,07,31,11,00,23.40
2018,07,31,11,01,23.40
2018,07,31,11,02,23.40
2018,07,31,11,03,23.40
2018,07,31,11,04,23.40
2018,07,31,11,05,23.30
2018,07,31,11,06,23.30
2018,07,31,11,07,23.40
2018,07,31,11,08,23.40
2018,07,31,11,09,23.40
2018,07,31,11,10,23.50
2018,07,31,11,11,23.60
2018,07,31,11,12,23.60
2018,07,31,11,13,23.70
2018,07,31,11,14,23.70
2018,07,31,11,15,23.70
2018,07,31,11,16,23.70
2018,07,31,11,17,23.70
2018,07,31,11,18,23.70
2018,07,31,11,19,23.60
2018,07,31,11,20,23.60
2018,07,31,11,21,23.50
2018,07,31,11,22,23.50
2018,07,31,11,23,23.50
2018,07,31,11,24,23.60
2018,07,31,11,25,23.70
2018,07,31,11,26,23.70
2018,07,31,11,27,23.90
2018,07,31,11,28,24.00
2018,07,31,11,29,24.00
2018,07,31,11,30,24.10
2018,07,31,11,31,24.20
2018,07,31,11,32,24.20
2018,07,31,11,33,24.20
2018,07,31,11,34,24.20
2018,07,31,11,35,24.30
2018,07,31,11,36,24.30
2018,07,31,11,37,24.30
2018,07,31,11,38,24.30
2018,07,31,11,39,24.30
2018,07,31,11,40,24.30
2018,07,31,11,41,24.40
2018,07,31,11,42,24.40
2018,07,31,11,43,24.30
2018,07,31,11,44,24.30
2018,07,31,11,45,24.20
2018,07,31,11,46,24.20
2018,07,31,11,47,24.20
2018,07,31,11,48,24.20
2018,07,31,11,49,24.10
2018,07,31,11,50,24.10
2018,07,31,11,51,24.10
2018,07,31,11,52,24.10
2018,07,31,11,53,24.10
2018,07,31,11,54,24.20
2018,07,31,11,55,24.20
2018,07,31,11,56,24.20
2018,07,31,11,57,24.30
2018,07,31,11,58,24.30
2018,07,31,11,59,24.40
2018,07,31,12,00,24.40
2018,07,31,12,01,24.50
2018,07,31,12,02,24.50
2018,07,31,12,03,24.50
2018,07,31,12,04,24.50
2018,07,31,12,05,24.40
2018,07,31,12,06,24.40
2018,07,31,12,07,24.30
2018,07,31,12,08,24.30
2018,07,31,12,09,24.30
2018,07,31,12,10,24.40
2018,07,31,12,11,24.40
2018,07,31,12,12,24.40
2018,07,31,12,13,24.50
2018,07,31,12,14,24.60
2018,07,31,12,15,24.70
2018,07,31,12,16,24.70
2018,07,31,12,17,24.80
2018,07,31,12,18,24.90
2018,07,31,12,19,24.90
2018,07,31,12,20,24.80
2018,07,31,12,21,24.80
2018,07,31,12,22,24.90
2018,07,31,12,23,24.90
2018,07,31,12,24,24.90
2018,07,31,12,25,24.90
2018,07,31,12,26,24.90
2018,07,31,12,27,24.80
2018,07,31,12,28,24.80
2018,07,31,12,29,24.80
2018,07,31,12,30,24.80
2018,07,31,12,31,24.80
2018,07,31,12,32,24.80
2018,07,31,12,33,24.70
2018,07,31,12,34,24.70
2018,07,31,12,35,24.70
2018,07,31,12,36,24.70
2018,07,31,12,37,24.70
2018,07,31,12,38,24.70
2018,07,31,12,39,24.80
2018,07,31,12,40,24.70
2018,07,31,12,41,24.60
2018,07,31,12,42,24.50
2018,07,31,12,43,24.40
2018,07,31,12,44,24.40
2018,07,31,12,45,24.40
2018,07,31,12,46,24.40
2018,07,31,12,47,24.40
2018,07,31,12,48,24.50
2018,07,31,12,49,24.60
2018,07,31,12,50,24.70
2018,07,31,12,51,24.70
2018,07,31,12,52,24.70
2018,07,31,12,53,24.70
2018,07,31,12,54,24.80
2018,07,31,12,55,24.80
2018,07,31,12,56,24.80
2018,07,31,12,57,24.70
2018,07,31,12,58,24.70
2018,07,31,12,59,24.70
2018,07,31,13,00,24.60
2018,07,31,13,01,24.70
2018,07,31,13,02,24.70
2018,07,31,13,03,24.70
2018,07,31,13,04,24.70
2018,07,31,13,05,24.70
2018,07,31,13,06,24.70
2018,07,31,13,07,24.70
2018,07,31,13,08,24.70
2018,07,31,13,09,24.70
2018,07,31,13,10,24.70
2018,07,31,13,11,24.70
2018,07,31,13,12,24.70
2018,07,31,13,13,24.70
2018,07,31,13,14,24.80
2018,07,31,13,15,24.80
2018,07,31,13,16,24.90
2018,07,31,13,17,24.90
2018,07,31,13,18,24.90
2018,07,31,13,19,24.90
2018,07,31,13,20,24.90
2018,07,31,13,21,25.00
2018,07,31,13,22,25.10
2018,07,31,13,23,25.10
2018,07,31,13,24,25.00
2018,07,31,13,25,25.00
2018,07,31,13,26,25.10
2018,07,31,13,27,25.10
2018,07,31,13,28,25.10
2018,07,31,13,29,25.20
2018,07,31,13,30,25.20
2018,07,31,13,31,25.10
2018,07,31,13,32,25.10
2018,07,31,13,33,25.10
2018,07,31,13,34,25.20
2018,07,31,13,35,25.20
2018,07,31,13,36,25.20
2018,07,31,13,37,25.20
2018,07,31,13,38,25.20
2018,07,31,13,39,25.10
2018,07,31,13,40,25.10
2018,07,31,13,41,25.00
2018,07,31,13,42,25.00
2018,07,31,13,43,24.90
2018,07,31,13,44,24.90
2018,07,31,13,45,24.90
2018,07,31,13,46,24.90
2018,07,31,13,47,24.90
2018,07,31,13,48,24.80
2018,07,31,13,49,24.80
2018,07,31,13,50,24.70
2018,07,31,13,51,24.70
2018,07,31,13,52,24.70
2018,07,31,13,53,24.70
2018,07,31,13,54,24.70
2018,07,31,13,55,24.80
2018,07,31,13,56,24.90
2018,07,31,13,57,25.00
2018,07,31,13,58,25.00
2018,07,31,13,59,25.10
2018,07,31,14,00,25.10
2018,07,31,14,01,25.10
2018,07,31,14,02,25.10
2018,07,31,14,03,25.20
2018,07,31,14,04,25.20
2018,07,31,14,05,25.20
2018,07,31,14,06,25.20
2018,07,31,14,07,25.20
2018,07,31,14,08,25.20
2018,07,31,14,09,25.20
2018,07,31,14,10,25.20
2018,07,31,14,11,25.20
2018,07,31,14,12,25.20
2018,07,31,14,13,25.30
2018,07,31,14,14,25.30
2018,07,31,14,15,25.30
2018,07,31,14,16,25.30
2018,07,31,14,17,25.30
2018,07,31,14,18,25.30
2018,07,31,14,19,25.30
2018,07,31,14,20,25.30
2018,07,31,14,21,25.30
2018,07,31,14,22,25.40
2018,07,31,14,23,25.40
2018,07,31,14,24,25.40
2018,07,31,14,25,25.30
2018,07,31,14,26,25.20
2018,07,31,14,27,25.00
2018,07,31,14,28,24.90
2018,07,31,14,29,24.80
2018,07,31,14,30,24.80
2018,07,31,14,31,24.80
2018,07,31,14,32,24.80
2018,07,31,14,33,24.90
2018,07,31,14,34,24.90
2018,07,31,14,35,24.90
2018,07,31,14,36,24.90
2018,07,31,14,37,25.00
2018,07,31,14,38,25.10
2018,07,31,14,39,25.10
2018,07,31,14,40,25.10
2018,07,31,14,41,25.20
2018,07,31,14,42,25.20
2018,07,31,14,43,25.10
2018,07,31,14,44,25.10
2018,07,31,14,45,25.10
2018,07,31,14,46,25.10
2018,07,31,14,47,25.10
2018,07,31,14,48,25.10
2018,07,31,14,49,25.10
2018,07,31,14,50,25.20
2018,07,31,14,51,25.30
2018,07,31,14,52,25.30
2018,07,31,14,53,25.30
2018,07,31,14,54,25.40
2018,07,31,14,55,25.40
2018,07,31,14,56,25.50
2018,07,31,14,57,25.50
2018,07,31,14,58,25.50
2018,07,31,14,59,25.50
2018,07,31,15,00,25.50
2018,07,31,15,01,25.50
2018,07,31,15,02,25.50
2018,07,31,15,03,25.60
2018,07,31,15,04,25.60
2018,07,31,15,05,25.60
2018,07,31,15,06,25.60
2018,07,31,15,07,25.50
2018,07,31,15,08,25.50
2018,07,31,15,09,25.40
2018,07,31,15,10,25.40
2018,07,31,15,11,25.40
2018,07,31,15,12,25.40
2018,07,31,15,13,25.40
2018,07,31,15,14,25.30
2018,07,31,15,15,25.30
2018,07,31,15,16,25.30
2018,07,31,15,17,25.40
2018,07,31,15,18,25.40
2018,07,31,15,19,25.30
2018,07,31,15,20,25.30
2018,07,31,15,21,25.30
2018,07,31,15,22,25.30
2018,07,31,15,23,25.10
2018,07,31,15,24,25.10
2018,07,31,15,25,25.10
2018,07,31,15,26,25.20
2018,07,31,15,27,25.20
2018,07,31,15,28,25.20
2018,07,31,15,29,25.30
2018,07,31,15,30,25.40
2018,07,31,15,31,25.40
2018,07,31,15,32,25.60
2018,07,31,15,33,25.60
2018,07,31,15,34,25.70
2018,07,31,15,35,25.70
2018,07,31,15,36,25.70
2018,07,31,15,37,25.70
2018,07,31,15,38,25.60
2018,07,31,15,39,25.50
2018,07,31,15,40,25.50
2018,07,31,15,41,25.50
2018,07,31,15,42,25.60
2018,07,31,15,43,25.60
2018,07,31,15,44,25.60
2018,07,31,15,45,25.70
2018,07,31,15,46,25.80
2018,07,31,15,47,25.90
2018,07,31,15,48,25.90
2018,07,31,15,49,26.00
2018,07,31,15,50,26.20
2018,07,31,15,51,26.30
2018,07,31,15,52,26.30
2018,07,31,15,53,26.40
2018,07,31,15,54,26.50
2018,07,31,15,55,26.60
2018,07,31,15,56,26.70
2018,07,31,15,57,26.70
2018,07,31,15,58,26.80
2018,07,31,15,59,26.80
2018,07,31,16,00,26.70
2018,07,31,16,01,26.70
2018,07,31,16,02,26.70
2018,07,31,16,03,26.70
2018,07,31,16,04,26.70
2018,07,31,16,05,26.70
2018,07,31,16,06,26.60
2018,07,31,16,07,26.50
2018,07,31,16,08,26.40
2018,07,31,16,09,26.40
2018,07,31,16,10,26.30
2018,07,31,16,11,26.30
2018,07,31,16,12,26.20
2018,07,31,16,13,26.20
2018,07,31,16,14,26.30
2018,07,31,16,15,26.30
2018,07,31,16,16,26.30
2018,07,31,16,17,26.30
2018,07,31,16,18,26.30
2018,07,31,16,19,26.30
2018,07,31,16,20,26.20
2018,07,31,16,21,26.20
2018,07,31,16,22,26.30
2018,07,31,16,23,26.30
2018,07,31,16,24,26.30
2018,07,31,16,25,26.40
2018,07,31,16,26,26.40
2018,07,31,16,27,26.40
2018,07,31,16,28,26.40
2018,07,31,16,29,26.30
2018,07,31,16,30,26.30
2018,07,31,16,31,26.30
2018,07,31,16,32,26.40
2018,07,31,16,33,26.30
2018,07,31,16,34,26.30
2018,07,31,16,35,26.30
2018,07,31,16,36,26.20
2018,07,31,16,37,26.20
2018,07,31,16,38,26.20
2018,07,31,16,39,26.20
2018,07,31,16,40,26.10
2018,07,31,16,41,26.00
2018,07,31,16,42,25.90
2018,07,31,16,43,25.90
2018,07,31,16,44,25.80
2018,07,31,16,45,25.80
2018,07,31,16,46,25.80
2018,07,31,16,47,25.80
2018,07,31,16,48,25.80
2018,07,31,16,49,25.80
2018,07,31,16,50,25.80
2018,07,31,16,51,25.90
2018,07,31,16,52,25.90
2018,07,31,16,53,25.90
2018,07,31,16,54,25.90
2018,07,31,16,55,26.00
2018,07,31,16,56,26.00
2018,07,31,16,57,26.00
2018,07,31,16,58,26.10
2018,07,31,16,59,26.00
2018,07,31,17,00,26.00
2018,07,31,17,01,25.90
2018,07,31,17,02,25.90
2018,07,31,17,03,25.80
2018,07,31,17,04,25.70
2018,07,31,17,05,25.70
2018,07,31,17,06,25.70
2018,07,31,17,07,25.60
2018,07,31,17,08,25.60
2018,07,31,17,09,25.60
2018,07,31,17,10,25.70
2018,07,31,17,11,25.70
2018,07,31,17,12,25.70
2018,07,31,17,13,25.70
2018,07,31,17,14,25.70
2018,07,31,17,15,25.70
2018,07,31,17,16,25.70
2018,07,31,17,17,25.80
2018,07,31,17,18,25.70
2018,07,31,17,19,25.70